This is the latest recevied weather packets stored in our database for station/object KC9DNQ-3. If no packets are shown the sender has not sent any weather packets the latest 10 day(s).
| Time | Temp. | Humidity | Pressure | Rain* | Wind** | Luminosity | Snow |
|---|---|---|---|---|---|---|---|
| 1777335007 | 17.22° C | 91% | 1003.6 hPa | 3.3 mm | - | 0 W/m² | - |
| 1777334707 | 17.22° C | 91% | 1002.9 hPa | 2.79 mm | - | 0 W/m² | - |
| 1777334408 | 17.22° C | 90% | 1002.9 hPa | 2.29 mm | - | 0 W/m² | - |
| 1777334108 | 17.22° C | 90% | 1002.4 hPa | 2.03 mm | - | 0 W/m² | - |
| 1777333808 | 17.22° C | 89% | 1001 hPa | 1.52 mm | - | 0 W/m² | - |
| 1777333508 | 17.22° C | 89% | 1001 hPa | 1.52 mm | - | 0 W/m² | - |
| 1777333208 | 17.22° C | 88% | 1002.3 hPa | 1.27 mm | - | 0 W/m² | - |
| 1777332909 | 17.78° C | 87% | 1002.3 hPa | 1.02 mm | - | 0 W/m² | - |
| 1777332609 | 17.78° C | 86% | 1002.3 hPa | 1.02 mm | - | 0 W/m² | - |
| 1777332307 | 18.33° C | 85% | 1001.6 hPa | 1.02 mm | - | 0 W/m² | - |
| 1777332008 | 18.89° C | 84% | 1001.5 hPa | 1.02 mm | - | 0 W/m² | - |
| 1777331708 | 19.44° C | 83% | 1001.5 hPa | 0.25 mm | - | 0 W/m² | - |
| 1777331408 | 19.44° C | 82% | 1001.6 hPa | 0 mm | - | 0 W/m² | - |
| 1777331108 | 19.44° C | 82% | 1001.3 hPa | 0 mm | - | 5 W/m² | - |
| 1777330807 | 19.44° C | 82% | 1001.3 hPa | 0 mm | - | 11 W/m² | - |
| 1777330509 | 19.44° C | 81% | 1001.3 hPa | 0 mm | - | 53 W/m² | - |
| 1777330208 | 19.44° C | 81% | 1001.6 hPa | 0 mm | - | 70 W/m² | - |
| 1777329908 | 20° C | 80% | 1001.6 hPa | 0 mm | - | 49 W/m² | - |
| 1777329609 | 20° C | 80% | 1001.6 hPa | 0 mm | - | 69 W/m² | - |
| 1777329307 | 20° C | 79% | 1001.8 hPa | 0 mm | - | 56 W/m² | - |
| 1777329008 | 20° C | 79% | 1002.1 hPa | 0 mm | - | 74 W/m² | - |
| 1777328707 | 20° C | 78% | 1002.2 hPa | 0 mm | - | 72 W/m² | - |
| 1777328407 | 20° C | 78% | 1002.4 hPa | 0 mm | - | 97 W/m² | - |
| 1777328108 | 20° C | 78% | 1002 hPa | 0 mm | - | 86 W/m² | - |
| 1777327808 | 20.56° C | 77% | 1002 hPa | 0 mm | - | 102 W/m² | - |
* Rain latest hour (hover to see other rain measurements)
** Current wind speed in m/s (hover to see current wind gust speed)